Location: Unspecified
(0.0000°N, 0.0000°E)
Time: 19:57:26
(UTC+00:00)

CZ-3C DEB - Pass Details

Date: 11 March 2026
Orbit: 404 x 27665 km, 19.3° (Epoch: 21 April)

Event Time Altitude Azimuth Distance (km) Brightness Sun altitude
Rises 19:45:05 0° 280° (W) 10,569 ? -23.7°
Reaches altitude 10° 19:51:11 10° 284° (WNW) 11,133 ? -25.3°
Enters shadow 01:21:02 51° 295° (WNW) 22,026 ? -71.9°
Exits shadow 02:30:50 70° 279° (W) 9,956 ? -54.6°
Maximum altitude 02:44:24 83° 206° (SSW) 6,706 ? -51.2°
Drops below altitude 10° 03:03:09 10° 116° (ESE) 4,907 ? -46.6°
Sets 03:05:10 0° 115° (ESE) 5,288 ? -46.1°
